Wind_Speed
15 17 21 22 26 23 25 25 28 29 31 33 34 38 42 45 45 45 43 43 41 40 40 40 40 39 38 37 36 35 33 34
15 18 31 28 26 26 26 26 26 28 30 34 36 37 38 41 46 50 50 49 48 47 45 44 44 41 38 40 34 32 36 34
15 19 25 24 24 25 26 28 28 27 31 33 36 40 43 43 44 48 50 55 55 52 50 50 49 44 45 46 49 51 45 50
17 23 24 25 25 24 24 25 28 31 34 37 37 40 46 47 46 47 48 57 58 58 56 55 55 51 48 50 52 58 51 45
23 25 26 31 31 31 33 33 32 32 34 38 41 44 45 46 48 46 47 51 58 59 60 59 57 55 52 51 53 54 55 53
27 29 22 24 25 28 31 34 35 35 33 33 35 42 48 45 44 45 43 44 50 54 53 55 56 56 51 50 55 55 57 55
17 18 20 21 22 27 30 31 31 34 36 37 39 38 39 47 46 44 41 42 45 49 46 49 49 49 45 44 52 56 55 52
18 23 25 28 30 34 41 35 35 32 30 31 33 36 39 41 42 40 37 37 36 34 41 46 44 44 42 41 47 57 58 54
24 31 35 37 32 34 38 40 31 29 32 32 32 32 22 26 26 28 31 35 34 32 31 29 29 33 31 34 44 56 57 45
26 28 33 42 42 41 37 42 37 29 29 30 31 29 20 19 22 25 26 29 30 24 28 28 26 30 31 33 42 57 54 56
33 30 30 33 41 34 36 40 41 31 30 27 27 25 22 17 15 13 20 24 30 28 27 34 27 28 32 32 29 40 28 34
39 34 30 31 39 44 42 39 37 30 29 27 25 23 8 16 20 18 17 12 12 18 29 38 34 28 26 25 30 37 41 35
37 32 29 28 30 35 36 33 31 27 25 21 25 20 23 32 26 35 18 15 17 18 20 26 25 25 29 36 38 34 26 23
33 27 26 27 27 30 33 31 26 26 25 22 21 28 23 26 30 29 33 26 25 21 23 26 22 27 24 24 24 23 19 21
21 21 23 26 27 29 30 30 26 22 23 22 21 23 23 24 29 28 26 28 25 28 25 33 33 30 25 24 20 19 19 18
16 20 22 26 28 30 30 27 26 24 21 22 21 22 23 26 22 30 33 31 30 23 25 27 28 29 28 24 22 20 17 21
17 20 23 26 29 30 30 29 27 25 19 19 19 23 22 23 21 27 27 23 18 17 18 16 11 12 15 15 14 14 15 21
17 21 23 28 29 32 32 31 28 26 19 16 15 20 19 24 26 26 22 20 23 21 19 18 17 16 14 16 19 22 26 32
18 20 21 27 31 33 33 31 28 23 20 14 16 19 20 23 22 19 20 24 24 25 27 26 20 15 16 16 16 17 20 22
Wind_Direction
310 314 286 272 268 265 254 253 256 252 256 259 258 260 261 261 260 260 259 256 254 254 256 254 253 255 254 254 254 257 261 264
312 306 281 275 271 268 263 259 260 263 264 265 263 263 265 266 262 259 256 255 252 252 252 257 258 257 252 255 255 260 262 265
324 311 291 283 275 273 276 273 271 267 265 269 273 269 266 266 267 262 259 256 254 252 252 255 259 258 257 250 252 256 257 263
311 300 295 292 286 280 275 270 266 267 268 267 269 273 270 270 270 268 268 261 254 252 251 252 255 260 257 254 252 253 267 268
300 296 292 293 291 290 292 290 289 284 278 277 277 273 273 274 274 272 274 268 251 251 252 253 255 259 259 257 257 261 258 259
303 302 306 295 298 302 300 296 293 288 285 283 279 273 268 272 273 269 271 267 254 253 255 255 256 258 258 254 255 253 251 248
312 306 305 304 302 310 307 301 301 293 288 288 289 277 266 267 268 265 264 258 256 257 256 252 255 256 259 253 246 244 246 247
296 291 292 295 301 304 306 306 308 298 287 287 282 279 273 267 263 259 257 256 253 253 250 251 253 259 259 256 247 239 239 242
305 290 286 290 299 297 296 307 316 305 286 283 285 282 285 274 270 272 259 251 258 256 263 259 254 250 252 255 251 242 236 252
323 322 313 297 295 290 290 292 306 312 310 292 287 278 297 280 275 268 270 258 256 252 254 252 239 239 241 247 250 239 240 259
322 320 320 316 304 296 299 293 286 306 308 305 289 287 300 296 305 294 270 264 251 258 256 257 246 242 241 249 245 236 252 279
313 313 318 320 311 301 294 292 293 295 299 305 305 288 345 336 303 305 305 307 304 261 253 253 236 235 243 246 259 262 269 254
306 307 315 319 320 308 304 296 292 285 282 293 300 292 284 305 303 307 268 274 289 271 239 231 228 226 240 248 253 246 222 225
296 305 315 320 324 318 310 307 302 286 278 274 285 294 318 306 296 298 288 288 283 274 267 269 242 221 209 208 202 204 218 231
294 306 317 323 328 325 321 317 310 296 274 279 276 282 297 303 316 327 313 271 248 262 260 256 243 226 197 194 198 212 226 237
306 319 324 319 327 326 329 327 317 307 283 274 268 280 288 291 304 312 320 305 253 230 229 219 212 214 217 209 204 214 234 255
317 321 326 321 325 324 331 331 326 324 295 272 273 292 285 288 299 320 324 272 236 223 234 228 236 249 250 258 261 250 253 262
322 325 325 320 320 327 331 335 330 326 321 294 292 302 306 285 296 307 312 279 256 248 243 259 248 265 273 284 259 252 264 275
330 322 319 312 324 326 329 330 327 321 322 329 313 317 308 294 291 286 292 296 278 276 270 270 266 271 279 281 285 285 281 276
Height
3123 3118 3114 3114 3111 3112 3110 3110 3109 3107 3106 3105 3105 3104 3104 3104 3105 3104 3105 3106 3107 3108 3109 3110 3110 3111 3113 3113 3114 3115 3116 3117
3117 3110 3106 3107 3105 3104 3104 3103 3102 3102 3100 3099 3097 3096 3095 3094 3094 3095 3095 3095 3097 3099 3101 3102 3102 3103 3104 3106 3108 3108 3109 3109
3112 3105 3100 3098 3097 3097 3096 3095 3094 3094 3092 3090 3088 3087 3086 3085 3084 3083 3083 3083 3085 3088 3091 3092 3093 3095 3096 3094 3095 3097 3100 3101
3104 3101 3097 3093 3091 3090 3089 3087 3085 3083 3081 3080 3079 3077 3074 3074 3074 3072 3071 3070 3073 3075 3078 3080 3081 3083 3084 3083 3084 3086 3087 3089
3099 3094 3092 3088 3086 3083 3081 3079 3077 3075 3073 3070 3068 3066 3064 3063 3061 3059 3057 3053 3058 3062 3064 3067 3070 3072 3073 3075 3076 3076 3078 3078
3094 3089 3085 3082 3080 3077 3074 3071 3069 3066 3064 3061 3058 3055 3052 3052 3050 3046 3046 3043 3045 3049 3053 3056 3057 3057 3060 3061 3063 3065 3067 3069
3089 3085 3081 3078 3076 3073 3069 3065 3061 3058 3055 3052 3047 3044 3041 3039 3038 3036 3036 3035 3035 3038 3040 3041 3044 3044 3046 3049 3050 3053 3056 3059
3084 3080 3076 3073 3070 3066 3062 3058 3054 3050 3046 3042 3038 3034 3029 3027 3026 3025 3026 3025 3026 3027 3027 3029 3031 3034 3035 3036 3036 3037 3041 3045
3079 3074 3069 3066 3064 3061 3056 3050 3047 3043 3037 3034 3030 3025 3020 3018 3017 3015 3014 3016 3016 3018 3019 3020 3020 3022 3025 3026 3028 3029 3032 3036
3073 3068 3061 3057 3056 3054 3051 3045 3040 3037 3031 3026 3024 3020 3015 3010 3009 3008 3007 3007 3008 3008 3009 3012 3011 3013 3015 3015 3018 3022 3025 3028
3069 3063 3057 3051 3047 3045 3043 3039 3033 3030 3025 3020 3017 3013 3009 3006 3004 3001 3000 3000 3001 2998 3000 3005 3003 3005 3007 3007 3010 3017 3019 3020
3065 3058 3053 3047 3040 3036 3033 3029 3025 3023 3019 3015 3010 3007 3002 3002 3000 2997 2996 2995 2992 2993 2994 2997 2991 2996 2999 3002 3004 3002 3008 3011
3061 3053 3049 3043 3035 3028 3024 3020 3017 3015 3012 3009 3006 3004 3002 3000 2994 2996 2990 2985 2989 2991 2989 2977 2983 2981 2990 2991 2993 2994 3001 3004
3056 3049 3044 3040 3031 3023 3017 3013 3010 3007 3005 3002 3002 2999 2996 2995 2992 2990 2987 2983 2979 2983 2985 2985 2981 2980 2980 2983 2985 2988 2994 2997
3048 3044 3040 3036 3028 3020 3014 3008 3003 3000 2998 2996 2995 2993 2992 2988 2987 2985 2984 2982 2977 2976 2978 2979 2977 2977 2976 2975 2976 2982 2987 2990
3043 3040 3035 3032 3024 3016 3011 3005 2999 2995 2992 2990 2989 2986 2986 2985 2984 2983 2978 2976 2974 2969 2970 2971 2968 2970 2970 2968 2970 2976 2980 2984
3039 3035 3032 3028 3020 3012 3007 3002 2997 2991 2988 2985 2985 2984 2983 2981 2980 2978 2975 2972 2971 2969 2968 2968 2969 2970 2971 2971 2968 2970 2973 2977
3033 3031 3029 3024 3016 3009 3005 3000 2994 2989 2984 2981 2980 2979 2978 2977 2978 2977 2973 2972 2971 2969 2967 2967 2967 2966 2965 2965 2966 2968 2970 2970
3027 3028 3025 3020 3012 3006 3002 2997 2990 2985 2982 2977 2977 2975 2974 2974 2973 2971 2970 2969 2969 2967 2965 2963 2961 2960 2960 2960 2960 2961 2962 2964